[[{"header":{"parameterUnit":"m.s-1","parameterCategory":1,"la1":30.2991,"la2":30.254,"lo1":-89.0895,"lo2":-89.0444,"dx":0.0017,"dy":0.0017,"nx":28,"ny":28,"refTime":"2022-12-07T03:00:00:Z","depth":0,"parameterNumber":2,"parameterNumberName":"U-component_of_WINDS"},"data":[0,0,0,0,0,0,0,0,0,0,0,0,0,0,0,0,0,0,0,0,0,0,0,0,0,0,0,0,0,0,0,0,0,0,0,0,0,0,0,0,0,0,0,0,0,0,0,0,0,0,0,0,0,0,0,0,0,0,-0.9047,-0.9047,0,-0.9039,-0.9039,-0.9039,-0.8989,-0.8988,-0.8987,-0.8986,-0.8978,-0.8979,-0.898,0,0,0,0,0,0,0,0,0,0,0,0,0,-0.9022,-0.9023,-0.9048,-0.9047,-0.9047,-0.9039,-0.9039,-0.9039,-0.8989,-0.8988,-0.8986,-0.8985,-0.8978,-0.8979,-0.898,0,0,0,0,0,0,0,0,0,0,0,0,0,-0.9025,-0.9023,-0.9048,-0.9021,-0.9019,-0.9039,-0.9039,-0.9039,-0.899,-0.8988,-0.8986,-0.8984,-0.8978,-0.8979,-0.898,-0.9025,0,0,-0.8985,-0.8985,0,0,0,0,0,0,0,0,-0.9025,-0.9026,-0.9025,-0.9023,-0.9021,-0.9013,-0.9027,-0.9034,-0.899,-0.9001,-0.8985,-0.8983,-0.8991,-0.8992,-0.8994,-0.9025,-0.9025,-0.8985,-0.8985,-0.8986,-0.8986,0,0,0,0,0,0,0,-0.9025,-0.9027,-0.9044,-0.9025,-0.9023,-0.9011,-0.9009,-0.9029,-0.9006,-0.9,-0.8996,-0.8996,-0.899,-0.8993,-0.8993,-0.9024,-0.8985,-0.8986,-0.8987,-0.8987,-0.9093,-0.9095,0,0,0,0,0,0,-0.9028,-0.9027,-0.9044,-0.9044,-0.9018,-0.9013,-0.9011,-0.9018,-0.9006,-0.9003,-0.8997,-0.8993,-0.8991,-0.8992,-0.8993,-0.9046,-0.8986,-0.8987,-0.8988,-0.9091,-0.9094,-0.9096,0,0,0,0,0,0,-0.9028,-0.903,-0.9045,-0.9034,-0.9035,-0.9015,-0.9023,-0.9018,-0.9021,-0.9004,-0.9,-0.9004,-0.899,-0.8991,-0.9018,-0.9045,-0.8988,-0.8989,-0.9089,-0.9092,-0.9095,-0.9151,0,0,0,0,0,0,-0.9027,-0.9031,-0.9047,-0.9035,-0.9036,-0.9069,-0.9024,-0.9019,-0.9024,-0.9019,-0.901,-0.9007,-0.8989,-0.9016,-0.9019,-0.9046,-0.899,-0.9086,-0.909,-0.9094,-0.9147,-0.9155,-0.9163,0,0,0,0,0,-0.9027,-0.9063,-0.9048,-0.905,-0.9056,-0.9071,-0.9071,-0.905,-0.9026,-0.9043,-0.9032,-0.9007,-0.9041,-0.9019,-0.9022,-0.905,-0.9085,-0.9089,-0.9094,-0.9143,-0.9154,-0.9163,0,0,0,0,0,0,-0.9078,-0.9061,-0.9044,-0.9077,-0.9076,-0.9062,-0.9083,-0.9062,-0.9067,-0.9062,-0.9035,-0.9034,-0.9065,-0.906,-0.9036,-0.9093,-0.9059,-0.9064,-0.9095,-0.9105,-0.9113,-0.9114,-0.8992,0,0,0,0,0,-0.9094,-0.9107,-0.9091,-0.9122,-0.9122,-0.9103,-0.9108,-0.9092,-0.909,-0.9089,-0.908,-0.9079,-0.909,-0.9097,-0.9106,-0.9146,-0.9144,-0.9166,-0.9174,-0.9181,-0.9186,-0.9208,-0.9218,-0.911,-0.911,-0.911,0,0,-0.9125,-0.9117,-0.9127,-0.9132,-0.9129,-0.9144,-0.9103,-0.912,-0.9131,-0.9091,-0.9116,-0.911,-0.9107,-0.9141,-0.9156,-0.9138,-0.9216,-0.9187,-0.9193,-0.9194,-0.9214,-0.9224,-0.9233,-0.9113,-0.9113,-0.9112,0,0,-0.9191,-0.9186,-0.9211,-0.921,-0.9206,-0.9193,-0.9199,-0.9189,-0.9183,-0.9208,-0.9179,-0.9192,-0.9211,-0.921,-0.9213,-0.928,-0.9257,-0.9283,-0.9326,-0.9348,-0.9356,-0.9364,-0.9388,-0.9397,-0.9288,-0.9289,-0.9289,0,-0.923,-0.9251,-0.9227,-0.9247,-0.925,-0.9216,-0.9242,-0.9242,-0.9241,-0.9245,-0.9225,-0.9248,-0.9244,-0.9278,-0.9294,-0.9297,-0.9304,-0.9284,-0.9357,-0.9364,-0.9371,-0.9394,-0.9403,-0.9292,-0.9291,-0.9291,-0.9291,0,-0.9301,-0.9316,-0.9337,-0.9338,-0.9344,-0.9367,-0.9347,-0.9356,-0.934,-0.9329,-0.9355,-0.9349,-0.9357,-0.9364,-0.9347,-0.9395,-0.9385,-0.9361,-0.9326,-0.9384,-0.9406,-0.9414,-0.9296,-0.9295,-0.9294,-0.9293,0,0,-0.9397,-0.9385,-0.9394,-0.9394,-0.9388,-0.9399,-0.9421,-0.9428,-0.9437,-0.9438,-0.9457,-0.9474,-0.9453,-0.9456,-0.9439,-0.9458,-0.9513,-0.9433,-0.9432,-0.9448,-0.9566,-0.9584,-0.9595,-0.9498,-0.95,-0.9501,-0.9567,0,-0.946,-0.9496,-0.9476,-0.9516,-0.953,-0.9498,-0.9517,-0.9516,-0.9508,-0.9519,-0.9509,-0.9522,-0.9493,-0.9495,-0.9512,-0.9503,-0.9536,-0.9498,-0.9515,-0.9516,-0.9517,-0.9606,-0.9624,-0.9686,-0.9575,-0.9576,-0.9577,0,-0.9538,-0.9543,-0.9584,-0.9576,-0.9581,-0.9599,-0.9605,-0.9616,-0.9614,-0.9607,-0.9611,-0.959,-0.9612,-0.9578,-0.9608,-0.9583,-0.9589,-0.9586,-0.9588,-0.9588,-0.955,-0.9609,-0.9705,-0.9715,-0.959,-0.9589,-0.9588,0,-0.9605,-0.9622,-0.9649,-0.965,-0.9641,-0.9655,-0.9652,-0.9649,-0.9655,-0.966,-0.9664,-0.9672,-0.9677,-0.9684,-0.9666,-0.9643,-0.97,-0.9664,-0.9695,-0.9695,-0.9708,-0.9707,-0.9807,-0.9712,-0.9712,-0.9711,-0.9711,0,-0.9677,-0.9704,-0.9679,-0.9695,-0.9724,-0.9702,-0.9731,-0.9725,-0.9723,-0.9738,-0.9712,-0.9727,-0.9703,-0.9716,-0.9703,-0.9731,-0.9733,-0.9728,-0.9724,-0.973,-0.9731,-0.9734,-0.9729,-0.9714,-0.9713,-0.9713,-0.9712,0,-0.9757,-0.9741,-0.9768,-0.9758,-0.9757,-0.9779,-0.9771,-0.9786,-0.9776,-0.9796,-0.9799,-0.9784,-0.9798,-0.9781,-0.9794,-0.9786,-0.9823,-0.9813,-0.9824,-0.9821,-0.9853,-0.985,-0.9958,-0.9971,-0.9868,-0.9869,-0.987,0,-0.9804,-0.9823,-0.9816,-0.9825,-0.9823,-0.9837,-0.9843,-0.9822,-0.983,-0.9831,-0.9847,-0.9859,-0.9867,-0.9891,-0.9882,-0.9892,-0.9882,-0.9919,-0.9883,-0.9889,-0.9883,-0.9882,-0.9884,-0.9926,-0.9927,-0.9928,-0.9929,0,-0.989,-0.9881,-0.9891,-0.9899,-0.9907,-0.9912,-0.9915,-0.9924,-0.9902,-0.9912,-0.9926,-0.9933,-0.9947,-0.9959,-0.9967,-0.9964,-0.9944,-0.9941,-0.9948,-0.9955,-0.996,-0.9958,-0.9844,-0.9938,-0.9937,-0.9936,-0.9936,-0.9936,-0.9954,-0.9971,-0.9968,-0.9981,-0.9981,-0.9985,-0.9999,-0.9991,-1.0002,-1.0012,-0.9999,-1.0017,-1.0016,-1.0024,-1.0025,-1.0039,-1.0023,-1.0034,-1.0037,-1.004,-1.0045,-0.9958,-1.004,-1.004,-1.004,-1.004,-1.0039,0,-1.0039,-1.0036,-1.0048,-1.0053,-1.0063,-1.0043,-1.0045,-1.0055,-1.0071,-1.0072,-1.0082,-1.0099,-1.0111,-1.0103,-1.0114,-1.0127,-1.0118,-1.013,-1.0129,-1.0129,-1.0059,-1.0051,-1.0138,-1.0138,-1.0138,-1.0138,-1.0138,-1.0138,-1.0084,-1.0111,-1.0103,-1.013,-1.0127,-1.0144,-1.0148,-1.0151,-1.0152,-1.0173,-1.0183,-1.0177,-1.0175,-1.0186,-1.0197,-1.0194,-1.0199,-1.0216,-1.021,-1.0144,-1.0134,-1.0125,-1.0118,-1.0217,-1.0217,-1.0279,-1.028,-1.028]},{"header":{"parameterUnit":"m.s-1","parameterCategory":1,"la1":30.2991,"la2":30.254,"lo1":-89.0895,"lo2":-89.0444,"dx":0.0017,"dy":0.0017,"nx":28,"ny":28,"refTime":"2022-12-07T03:00:00:Z","depth":0,"parameterNumber":3,"parameterNumberName":"V-component_of_WINDS"},"data":[0,0,0,0,0,0,0,0,0,0,0,0,0,0,0,0,0,0,0,0,0,0,0,0,0,0,0,0,0,0,0,0,0,0,0,0,0,0,0,0,0,0,0,0,0,0,0,0,0,0,0,0,0,0,0,0,0,0,0.4386,0.4386,0,0.442,0.4421,0.4421,0.4465,0.4466,0.4466,0.4467,0.4501,0.4501,0.4501,0,0,0,0,0,0,0,0,0,0,0,0,0,0.4357,0.4358,0.4386,0.4386,0.4387,0.442,0.4421,0.4421,0.4465,0.4466,0.4467,0.4468,0.4501,0.4501,0.4501,0,0,0,0,0,0,0,0,0,0,0,0,0,0.4378,0.4358,0.4386,0.4413,0.4415,0.442,0.4421,0.4421,0.4465,0.4466,0.4467,0.4468,0.45,0.4501,0.4501,0.4482,0,0,0.4502,0.4502,0,0,0,0,0,0,0,0,0.4377,0.4379,0.4408,0.4411,0.4414,0.4439,0.4423,0.4441,0.4464,0.4446,0.4467,0.4468,0.4479,0.4481,0.4485,0.4483,0.4485,0.4502,0.4502,0.4502,0.4503,0,0,0,0,0,0,0,0.4376,0.4378,0.4399,0.4409,0.4412,0.4423,0.4427,0.4427,0.4456,0.4448,0.4451,0.4454,0.4481,0.4485,0.4487,0.4485,0.4502,0.4502,0.4503,0.4503,0.4469,0.4468,0,0,0,0,0,0,0.437,0.4377,0.4398,0.44,0.4398,0.4422,0.4427,0.443,0.4456,0.4461,0.4454,0.4456,0.4484,0.4486,0.4488,0.4468,0.4502,0.4503,0.4503,0.4471,0.4469,0.4468,0,0,0,0,0,0,0.4369,0.4372,0.4397,0.4389,0.4393,0.4422,0.4425,0.443,0.4434,0.4461,0.4466,0.4452,0.4485,0.4487,0.4483,0.4469,0.4503,0.4503,0.4472,0.447,0.4469,0.4426,0,0,0,0,0,0,0.4368,0.4371,0.4364,0.4389,0.4394,0.4392,0.4424,0.443,0.4435,0.4439,0.4461,0.4466,0.4486,0.4482,0.4483,0.447,0.4503,0.4473,0.4471,0.4469,0.4429,0.4423,0.4419,0,0,0,0,0,0.4367,0.435,0.4364,0.4366,0.4386,0.4391,0.4394,0.4418,0.4434,0.4427,0.4444,0.4465,0.4471,0.4482,0.4483,0.447,0.4474,0.4472,0.4469,0.4431,0.4425,0.4419,0,0,0,0,0,0,0.4323,0.4354,0.4369,0.436,0.4372,0.4398,0.4391,0.441,0.4417,0.4421,0.445,0.4455,0.4447,0.4458,0.447,0.4453,0.4476,0.4473,0.4446,0.444,0.4435,0.4432,0.4504,0,0,0,0,0,0.4312,0.4314,0.4341,0.433,0.4336,0.4362,0.4365,0.4383,0.4397,0.4402,0.4419,0.4431,0.4436,0.4438,0.4444,0.4431,0.4436,0.4422,0.4417,0.4413,0.4411,0.4405,0.44,0.446,0.446,0.446,0,0,0.4289,0.4307,0.4306,0.4322,0.4333,0.4335,0.4366,0.4366,0.4367,0.4402,0.4399,0.4412,0.4428,0.4419,0.4416,0.4428,0.4395,0.441,0.4406,0.4406,0.4402,0.4396,0.4391,0.4458,0.4459,0.4459,0,0,0.4249,0.4262,0.4255,0.4266,0.4284,0.4302,0.43,0.4323,0.4333,0.4331,0.4358,0.4359,0.4367,0.4377,0.4384,0.4348,0.4368,0.4349,0.4322,0.4316,0.4311,0.4307,0.4295,0.4291,0.4347,0.4346,0.4346,0,0.4218,0.4222,0.4249,0.4247,0.4254,0.4286,0.4279,0.4289,0.4307,0.431,0.4324,0.4334,0.4347,0.4342,0.4333,0.4337,0.4336,0.4347,0.431,0.4306,0.4303,0.4292,0.4287,0.4344,0.4344,0.4345,0.4345,0,0.4184,0.4186,0.4178,0.4196,0.4202,0.4197,0.4223,0.4225,0.4242,0.4259,0.4257,0.4273,0.4283,0.4283,0.4299,0.428,0.4287,0.4305,0.4328,0.4294,0.4284,0.428,0.4341,0.4342,0.4342,0.4343,0,0,0.4117,0.415,0.4147,0.4156,0.4178,0.418,0.4177,0.4188,0.419,0.4201,0.42,0.4206,0.4222,0.4229,0.4247,0.4242,0.4214,0.4261,0.4261,0.4252,0.4195,0.4182,0.4177,0.4227,0.4226,0.4226,0.4194,0,0.4081,0.4079,0.4104,0.4095,0.4097,0.4128,0.4126,0.4139,0.4154,0.4158,0.4175,0.4179,0.42,0.4205,0.4201,0.4218,0.4203,0.4221,0.4226,0.4226,0.4222,0.4171,0.4158,0.4127,0.419,0.4189,0.4189,0,0.404,0.405,0.4042,0.4066,0.4067,0.4065,0.4077,0.4081,0.4096,0.4108,0.4116,0.4137,0.4136,0.4158,0.4157,0.4168,0.4172,0.4181,0.418,0.4182,0.4206,0.4173,0.4117,0.4113,0.4183,0.4183,0.4184,0,0.3993,0.4004,0.4001,0.4008,0.4035,0.4033,0.4044,0.4061,0.4066,0.4076,0.408,0.4089,0.4095,0.4102,0.4125,0.4138,0.4121,0.4145,0.4131,0.413,0.4126,0.4126,0.4072,0.4127,0.4127,0.4127,0.4128,0,0.3951,0.3945,0.3981,0.3979,0.3973,0.4,0.3994,0.4008,0.4023,0.4024,0.4051,0.4051,0.4081,0.4085,0.4103,0.41,0.4102,0.4111,0.4116,0.4109,0.4108,0.4112,0.4115,0.4126,0.4127,0.4127,0.4127,0,0.3897,0.3921,0.392,0.3946,0.3952,0.3947,0.3969,0.3968,0.3985,0.3987,0.3989,0.4015,0.4021,0.4044,0.4056,0.4068,0.4059,0.4068,0.4054,0.4057,0.4043,0.4044,0.3989,0.3984,0.4042,0.4041,0.4041,0,0.387,0.3866,0.3892,0.3895,0.3905,0.391,0.3915,0.3942,0.3947,0.3965,0.3962,0.3971,0.3979,0.3987,0.4007,0.4016,0.4026,0.4006,0.4028,0.4021,0.4027,0.4027,0.4027,0.4002,0.4001,0.4,0.4,0,0.3818,0.383,0.3838,0.3849,0.3855,0.3866,0.3877,0.3878,0.3908,0.3912,0.3919,0.3926,0.3938,0.3946,0.3958,0.397,0.399,0.3993,0.399,0.3984,0.3976,0.3981,0.4042,0.3994,0.3995,0.3995,0.3995,0.3996,0.3777,0.3776,0.3794,0.3802,0.3813,0.3824,0.3825,0.3842,0.3849,0.3861,0.3877,0.3882,0.3898,0.3917,0.3927,0.3931,0.3942,0.3938,0.3937,0.3936,0.3933,0.3975,0.3933,0.3934,0.3934,0.3934,0.3934,0,0.3728,0.3741,0.3748,0.3764,0.377,0.3789,0.3803,0.3807,0.3811,0.3825,0.3833,0.3841,0.3849,0.387,0.388,0.388,0.3889,0.3881,0.3882,0.3884,0.3922,0.3924,0.3874,0.3874,0.3874,0.3874,0.3874,0.3874,0.3703,0.3702,0.3716,0.3721,0.3734,0.374,0.3747,0.3757,0.3768,0.3776,0.3783,0.3797,0.3814,0.3826,0.3834,0.384,0.3842,0.3832,0.3841,0.3876,0.3882,0.3887,0.3889,0.3832,0.3832,0.3803,0.3802,0.3802]}]]